User: anonymous   Login
Location: *
(46.4000°N, 12.6667°E)
Time: 02:05:28
(UTC+00:00)
Language:

CZ-4C R/B - Orbit

View from above orbital plane
View from above orbital plane
View from above satellite
View from above satellite

Ground track
Ground track

The orbit data is extracted from the following two-line orbital elements,

1 36416U 10009D   21213.31882189 -.00000012  00000-0  42533-4 0  9994
2 36416  63.4181 178.5771 0535439 355.6816   3.9693 13.69598604570456
Epoch (UTC): 01 August 2021 07:39:06
Eccentricity: 0.0535439
inclination: 63.4181°
perigee height: 606 km
apogee height: 1396 km
right ascension of ascending node: 178.5771°
argument of perigee: 355.6816°
revolutions per day: 13.69598604
mean anomaly at epoch: 3.9693°
orbit number at epoch: 57045

The dashed part of the orbit path shows where the satellite is in the earth's shadow,  

DLR